Tracking 18665 objects as of 22-June-2017
HD Live streaming from Space Station
objects crossing your sky now

NOAA 2 (ITOS-D)

Track NOAA 2 (ITOS-D) now!
10-day predictions
NOAA 2 (ITOS-D) is classified as:


NORAD ID: 6235
Int'l Code: 1972-082A
Perigee: 1,455.6 km
Apogee: 1,461.8 km
Inclination: 101.7 °
Period: 114.9 minutes
Semi major axis: 7829 km
RCS: 2.925 m2 (large)
Launch date: October 15, 1972
Source: United States (US)
Launch site: AIR FORCE WESTERN TEST RANGE (AFWTR)
Your satellite tracking list
Your tracking list is empty





NASA's NSSDC Master Catalog

Two Line Element Set (TLE):
1  6235U 72082A   17172.86504937 -.00000038 +00000-0 +42160-4 0  9994
2  6235 101.6817 137.8961 0003962 346.1612 041.5733 12.53094067043805
Source of the keplerian elements: AFSPC